TimeBST,TemperatureF,Dew PointF,Humidity,Sea Level PressureIn,VisibilityMPH,Wind Direction,Wind SpeedMPH,Gust SpeedMPH,PrecipitationIn,Events,Conditions,WindDirDegrees,DateUTC
12:20 AM,60.8,57.2,88,30.15,6.2,WNW,11.5,-,N/A,,Overcast,300,2013-06-28 23:20:00
12:50 AM,60,56,84,30.15,9,WNW,12.7,,,,Mostly Cloudy,290,2013-06-28 23:50:00
12:50 AM,60.8,57.2,88,30.12,6.2,West,12.7,-,N/A,,Mostly Cloudy,280,2013-06-28 23:50:00
1:50 AM,60.8,57.2,88,30.15,6.2,WNW,9.2,-,N/A,,Mostly Cloudy,290,2013-06-29 00:50:00
2:20 AM,59.0,55.4,88,30.15,6.2,WNW,9.2,-,N/A,,Mostly Cloudy,290,2013-06-29 01:20:00
2:50 AM,59.0,55.4,88,30.15,6.2,WNW,8.1,-,N/A,,Mostly Cloudy,290,2013-06-29 01:50:00
3:20 AM,59.0,55.4,88,30.15,6.2,WNW,8.1,-,N/A,,Mostly Cloudy,290,2013-06-29 02:20:00
3:50 AM,59,56,85,30.16,9,West,9.2,,,,Scattered Clouds,280,2013-06-29 02:50:00
3:50 AM,59.0,55.4,88,30.15,6.2,West,9.2,-,N/A,,Scattered Clouds,280,2013-06-29 02:50:00
4:50 AM,59.0,55.4,88,30.15,6.2,West,8.1,-,N/A,,Scattered Clouds,280,2013-06-29 03:50:00
5:20 AM,59.0,55.4,88,30.15,6.2,West,9.2,-,N/A,,Partly Cloudy,280,2013-06-29 04:20:00
5:50 AM,59.0,55.4,88,30.15,6.2,WNW,9.2,-,N/A,,Partly Cloudy,290,2013-06-29 04:50:00
6:20 AM,59.0,55.4,88,30.18,6.2,West,10.4,-,N/A,,Scattered Clouds,280,2013-06-29 05:20:00
6:50 AM,60,56,81,30.20,11,WNW,8.1,,,,,290,2013-06-29 05:50:00
6:50 AM,60.8,55.4,82,30.18,6.2,West,9.2,-,N/A,,Scattered Clouds,280,2013-06-29 05:50:00
7:20 AM,60.8,55.4,82,30.18,6.2,WNW,8.1,-,N/A,,Scattered Clouds,290,2013-06-29 06:20:00
7:50 AM,59.0,55.4,88,30.21,6.2,West,8.1,-,N/A,,Partly Cloudy,280,2013-06-29 06:50:00
8:20 AM,62.6,55.4,77,30.21,6.2,NW,8.1,-,N/A,,Scattered Clouds,310,2013-06-29 07:20:00
8:50 AM,62.6,51.8,68,30.21,6.2,NW,9.2,-,N/A,,Scattered Clouds,310,2013-06-29 07:50:00
9:20 AM,64.4,51.8,64,30.21,6.2,NNW,8.1,-,N/A,,Scattered Clouds,340,2013-06-29 08:20:00
9:50 AM,64,51,53,30.25,19,NNW,8.1,,,,Partly Cloudy,340,2013-06-29 08:50:00
9:50 AM,66.2,53.6,64,30.24,6.2,NNW,8.1,-,N/A,,Scattered Clouds,330,2013-06-29 08:50:00
10:20 AM,64.4,51.8,64,30.24,6.2,NNW,6.9,-,N/A,,Partly Cloudy,340,2013-06-29 09:20:00
10:50 AM,66.2,50.0,56,30.24,6.2,NW,6.9,-,N/A,,Partly Cloudy,320,2013-06-29 09:50:00
11:20 AM,68.0,48.2,49,30.24,6.2,NW,9.2,-,N/A,,Partly Cloudy,310,2013-06-29 10:20:00
11:50 AM,68.0,46.4,46,30.24,6.2,WNW,8.1,-,N/A,,Partly Cloudy,300,2013-06-29 10:50:00
12:20 PM,68.0,50.0,52,30.24,6.2,WNW,11.5,-,N/A,,Partly Cloudy,290,2013-06-29 11:20:00
12:50 PM,69,47,34,30.26,19,NW,10.4,,,,,310,2013-06-29 11:50:00
12:50 PM,69.8,48.2,46,30.24,6.2,NW,11.5,-,N/A,,Partly Cloudy,310,2013-06-29 11:50:00
1:20 PM,71.6,50.0,46,30.24,6.2,WNW,11.5,-,N/A,,Partly Cloudy,300,2013-06-29 12:20:00
1:50 PM,69.8,48.2,46,30.24,6.2,WNW,12.7,-,N/A,,Partly Cloudy,300,2013-06-29 12:50:00
2:50 PM,71.6,46.4,41,30.24,6.2,NW,12.7,-,N/A,,Partly Cloudy,320,2013-06-29 13:50:00
3:20 PM,71.6,42.8,35,30.24,6.2,NW,12.7,-,N/A,,Partly Cloudy,320,2013-06-29 14:20:00
3:50 PM,73,47,29,30.25,17,WNW,11.5,,,,,300,2013-06-29 14:50:00
3:50 PM,71.6,42.8,35,30.24,6.2,NW,11.5,-,N/A,,Partly Cloudy,320,2013-06-29 14:50:00
4:20 PM,73.4,48.2,41,30.24,-9999.0,WNW,13.8,-,N/A,,Clear,290,2013-06-29 15:20:00
4:50 PM,73.4,48.2,41,30.24,-9999.0,NW,11.5,-,N/A,,Clear,310,2013-06-29 15:50:00
5:20 PM,71.6,48.2,43,30.24,-9999.0,WNW,12.7,-,N/A,,Clear,300,2013-06-29 16:20:00
5:50 PM,71.6,50.0,46,30.24,-9999.0,NW,12.7,-,N/A,,Clear,320,2013-06-29 16:50:00
6:20 PM,69.8,50.0,49,30.24,-9999.0,WNW,15.0,-,N/A,,Clear,300,2013-06-29 17:20:00
6:50 PM,70,50,39,30.26,18,NW,15.0,,,,,310,2013-06-29 17:50:00
6:50 PM,69.8,50.0,49,30.24,-9999.0,NW,13.8,-,N/A,,Clear,320,2013-06-29 17:50:00
7:20 PM,69.8,51.8,53,30.24,-9999.0,WNW,13.8,-,N/A,,Clear,300,2013-06-29 18:20:00
7:50 PM,68.0,53.6,60,30.24,-9999.0,WNW,12.7,-,N/A,,Clear,300,2013-06-29 18:50:00
8:20 PM,66.2,53.6,64,30.27,-9999.0,NW,12.7,-,N/A,,Clear,320,2013-06-29 19:20:00
8:50 PM,64.4,53.6,68,30.27,-9999.0,NW,11.5,-,N/A,,Clear,310,2013-06-29 19:50:00
9:20 PM,62.6,55.4,77,30.27,-9999.0,WNW,10.4,-,N/A,,Clear,300,2013-06-29 20:20:00
9:50 PM,61,56,77,30.30,12,NW,8.1,,,,,310,2013-06-29 20:50:00
9:50 PM,60.8,55.4,82,30.27,-9999.0,NW,8.1,-,N/A,,Clear,310,2013-06-29 20:50:00
10:20 PM,60.8,55.4,82,30.30,-9999.0,WNW,8.1,-,N/A,,Clear,300,2013-06-29 21:20:00
10:50 PM,60.8,55.4,82,30.30,-9999.0,West,4.6,-,N/A,,Clear,280,2013-06-29 21:50:00
11:20 PM,60.8,55.4,82,30.27,-9999.0,WNW,9.2,-,N/A,,Clear,300,2013-06-29 22:20:00
11:50 PM,60.8,57.2,88,30.27,-9999.0,NW,10.4,-,N/A,,Clear,320,2013-06-29 22:50:00